Meteo Giornale » Osservazioni meteo Grecia » Zakinthos
ore: 08:20 - Osservazioni Meteo Zakinthos
Lat. 37° 45' N Lon. 20° 53' E Alt. 3 metri s.l.m.
26 °C
Poco Nuvoloso
Temp. 24 Ore
24 °C
31 °C
Nord
0 Km/h
Dew point 22 °C
Umidità 78 %
Visibilità 10 Km
Il sole sorge alle ore 07:06
Il sole tramonta alle ore 20:06
| Data e Ora | Cielo e Fenomeni | T °C | DP °C | Um. % | Pres. hPa | Vis. km | Vento km/h | |
|---|---|---|---|---|---|---|---|---|
| Oggi h: 08:20 | Poco Nuvoloso | 26 | 22 | 78 | 1014 | 10 | N 0 | |
| Oggi h: 07:50 | Poco Nuvoloso | 25 | 22 | 83 | 1014 | 10 | N 0 | |
| Oggi h: 07:20 | Poco Nuvoloso | 24 | 22 | 88 | 1014 | 10 | N 0 | |
| Oggi h: 06:50 | Poco Nuvoloso | 24 | 23 | 94 | 1014 | 9 | N 0 | |
| Oggi h: 06:20 | Poco Nuvoloso | 24 | 23 | 94 | 1014 | 9 | N 0 | |
| Oggi h: 05:50 | Poco Nuvoloso | 24 | 23 | 94 | 1014 | 9 | N 0 | |
| Oggi h: 05:20 | Poco Nuvoloso | 24 | 22 | 88 | 1014 | 9 | N 0 | |
| Oggi h: 04:50 | Poco Nuvoloso | 25 | 24 | 94 | 1014 | 9 | N 0 | |
| Oggi h: 04:20 | Poco Nuvoloso | 25 | 24 | 94 | 1014 | 9 | N 0 | |
| Ieri h: 22:20 | Nuvoloso | 28 | 25 | 83 | 1014 | 10 | SE 7.4 | |
| Ieri h: 21:50 | Nuvoloso | 28 | 26 | 88 | 1014 | 10 | S/SE 7.4 | |
| Ieri h: 21:20 | Nuvoloso | 28 | 25 | 83 | 1014 | 10 | SE 9.3 | |
| Ieri h: 20:50 | Nuvoloso | 28 | 25 | 83 | 1014 | 10 | S 9.3 | |
| Ieri h: 20:20 | Nuvoloso | 28 | 26 | 88 | 1014 | 10 | S 11.1 | |
| Ieri h: 19:50 | Nuvoloso | 29 | 25 | 79 | 1014 | 10 | S 11.1 | |
| Ieri h: 19:20 | Nuvoloso | 29 | 25 | 79 | 1014 | 9 | S 13 | |
| Ieri h: 18:50 | Nuvoloso | 29 | 25 | 79 | 1014 | 9 | S 14.8 | |
| Ieri h: 18:20 | Nuvoloso | 29 | 25 | 79 | 1014 | 8 | S 18.5 | |
| Ieri h: 17:50 | Nuvoloso | 30 | 25 | 74 | 1014 | 9 | S 20.3 | |
| Ieri h: 17:20 | Nuvoloso | 30 | 25 | 74 | 1014 | 10 | S 22.2 | |
| Ieri h: 16:50 | Nuvoloso | 31 | 25 | 70 | 1014 | 10 | S 20.3 | |
| Ieri h: 16:20 | Nuvoloso | 31 | 25 | 70 | 1014 | 10 | S/SE 22.2 | |
| Ieri h: 15:50 | Nuvoloso | 31 | 25 | 70 | 1014 | 10 | S 22.2 | |
| Ieri h: 15:20 | Nuvoloso | 31 | 25 | 70 | 1014 | 10 | S 22.2 | |
| Ieri h: 14:50 | Nuvoloso | 31 | 24 | 66 | 1014 | 10 | S/SE 24 | |
| Ieri h: 14:20 | Nuvoloso | 31 | 24 | 66 | 1014 | 10 | S 24 | |
| Ieri h: 13:50 | Nuvoloso | 31 | 24 | 66 | 1014 | 10 | S 22.2 | |
| Ieri h: 13:20 | Nuvoloso | 31 | 24 | 66 | 1014 | 10 | S 22.2 | |
| Ieri h: 12:50 | Nuvoloso | 31 | 24 | 66 | 1015 | 10 | S 24 | |
| Ieri h: 12:20 | Nuvoloso | 31 | 24 | 66 | 1015 | 10 | S 22.2 | |
| Ieri h: 11:50 | Nuvoloso | 30 | 24 | 70 | 1014 | 10 | S 20.3 | |
| Ieri h: 11:20 | Nuvoloso | 30 | 24 | 70 | 1014 | 10 | S/SE 20.3 | |
| Ieri h: 10:50 | Nuvoloso | 29 | 24 | 74 | 1014 | 10 | S/SE 20.3 | |
| Ieri h: 10:20 | Nuvoloso | 29 | 24 | 74 | 1014 | 10 | S/SE 16.7 | |
| Ieri h: 09:50 | Nuvoloso | 29 | 24 | 74 | 1014 | 10 | SE 13 | |
| Ieri h: 09:20 | Nuvoloso | 27 | 25 | 88 | 1014 | 10 | S/SE 13 | |
| Ieri h: 08:50 | Nuvoloso | 26 | 23 | 83 | 1014 | 9 | N 0 | |



